Punta Gorda, FL

11:53 PM EDT on June 22, 2017 (GMT -0400)
Charlotte County

Weather History for KPGD - December, 2011

Change the Weather History Date:

Sunday, December 11, 2011

  Actual Average Record
Temperature  
Mean Temperature 70 °F -  
Max Temperature 79 °F 73 °F 84 °F (1997)
Min Temperature 62 °F 53 °F 44 °F (2014)
Cooling Degree Days 6    
Growing Degree Days 20 (Base 50)    
Moisture  
Dew Point 64 °F    
Average Humidity 84    
Maximum Humidity 97    
Minimum Humidity 64    
Precipitation  
Precipitation 0.00 in - - ()
Sea Level Pressure  
Sea Level Pressure 30.16 in    
Wind  
Wind Speed 11 mph (NE)    
Max Wind Speed 18 mph    
Max Gust Speed 24 mph    
Visibility 9 miles    
Events Rain    
Averages and records for this station are not official NWS values.
T = Trace of Precipitation, MM = Missing Value Source: NWS Daily Summary

Daily Weather History Graph

Daily Weather History Graph

Search for Another Location

Airport or City:

Trip Planner

Search our weather history database for the weather conditions in past years. The results will help you decide how hot, cold, wet, or windy it might be!

Date:

Astronomy

Dec. 11, 2011 Rise Set
Actual Time 7:06 AM EST 5:35 PM EST
Civil Twilight 6:41 AM EST 6:00 PM EST
Nautical Twilight 6:12 AM EST 6:29 PM EST
Astronomical Twilight 5:43 AM EST 6:58 PM EST
Moon 6:43 PM EST (12/11) 7:53 AM EST (12/11)
Length of Visible Light 11h 19m
Length of Day
10h 28m
Full, 99% of the Moon is Illuminated
Dec 11
Full
Dec 17
Last Quarter
Dec 24
New
Jan 1
First Quarter
Jan 9
Full

Hourly Weather History & Observations

Time (EST) Temp. Dew Point Humidity Pressure Visibility Wind Dir Wind Speed Gust Speed Precip Events Conditions
12:31 AM 66.2 °F 64.4 °F 94% 30.16 in 10.0 mi NNE 9.2 mph - N/A   Partly Cloudy
12:45 AM 66.2 °F 64.4 °F 94% 30.16 in 10.0 mi NNE 9.2 mph - N/A   Mostly Cloudy
12:53 AM 66.0 °F 64.0 °F 93% 30.16 in 10.0 mi NNE 12.7 mph - N/A   Overcast
1:53 AM 66.0 °F 63.0 °F 90% 30.15 in 9.0 mi NE 11.5 mph - N/A   Overcast
2:53 AM 64.0 °F 62.1 °F 93% 30.14 in 8.0 mi NE 9.2 mph - N/A   Overcast
3:53 AM 63.0 °F 61.0 °F 93% 30.14 in 7.0 mi NE 11.5 mph 18.4 mph N/A   Overcast
4:53 AM 63.0 °F 61.0 °F 93% 30.13 in 6.0 mi NE 11.5 mph - N/A   Overcast
5:05 AM 62.6 °F 60.8 °F 94% 30.13 in 5.0 mi NE 9.2 mph - N/A   Overcast
5:53 AM 63.0 °F 61.0 °F 93% 30.14 in 4.0 mi NE 10.4 mph - N/A   Overcast
6:53 AM 63.0 °F 62.1 °F 97% 30.17 in 5.0 mi NNE 11.5 mph - N/A   Overcast
7:53 AM 64.0 °F 62.1 °F 93% 30.18 in 5.0 mi NE 11.5 mph - N/A   Overcast
8:53 AM 64.9 °F 63.0 °F 93% 30.19 in 7.0 mi ENE 9.2 mph - N/A   Overcast
9:02 AM 64.4 °F 62.6 °F 94% 30.19 in 8.0 mi NE 11.5 mph - N/A   Overcast
9:50 AM 71.6 °F 64.4 °F 78% 30.20 in 10.0 mi NE 11.5 mph - N/A   Scattered Clouds
10:53 AM 75.9 °F 66.0 °F 71% 30.19 in 10.0 mi ENE 15.0 mph 20.7 mph N/A   Mostly Cloudy
11:48 AM 78.8 °F 66.2 °F 65% 30.18 in 10.0 mi ENE 13.8 mph - N/A   Overcast
11:53 AM 78.1 °F 64.9 °F 64% 30.18 in 10.0 mi ENE 17.3 mph 21.9 mph N/A   Overcast
12:05 PM 78.8 °F 66.2 °F 65% 30.17 in 10.0 mi ENE 15.0 mph 20.7 mph N/A   Mostly Cloudy
12:53 PM 75.0 °F 68.0 °F 79% 30.16 in 10.0 mi ENE 11.5 mph - 0.00 in   Mostly Cloudy
1:53 PM 79.0 °F 66.9 °F 66% 30.14 in 10.0 mi ENE 18.4 mph 23.0 mph N/A   Partly Cloudy
2:53 PM 78.1 °F 66.0 °F 66% 30.14 in 10.0 mi NE 16.1 mph 23.0 mph N/A   Scattered Clouds
3:39 PM 75.2 °F 66.2 °F 73% 30.14 in 10.0 mi NE 16.1 mph - N/A   Mostly Cloudy
3:53 PM 73.9 °F 66.0 °F 76% 30.14 in 10.0 mi East 16.1 mph 24.2 mph 0.00 in Rain Light Rain
4:02 PM 71.6 °F 66.2 °F 83% 30.14 in 10.0 mi East 12.7 mph - 0.00 in Rain Light Rain
4:10 PM 71.6 °F 66.2 °F 83% 30.14 in 10.0 mi ESE 11.5 mph - 0.00 in Rain Light Rain
4:53 PM 72.0 °F 66.0 °F 81% 30.15 in 10.0 mi ENE 5.8 mph - 0.00 in Rain Light Rain
5:53 PM 71.1 °F 64.9 °F 81% 30.15 in 10.0 mi ENE 8.1 mph - 0.00 in   Overcast
6:53 PM 71.1 °F 64.0 °F 78% 30.16 in 10.0 mi ENE 6.9 mph - N/A   Overcast
7:53 PM 70.0 °F 64.9 °F 84% 30.16 in 10.0 mi ENE 8.1 mph - N/A   Mostly Cloudy
9:53 PM 66.9 °F 64.0 °F 90% 30.17 in 10.0 mi ENE 8.1 mph - N/A   Partly Cloudy
10:53 PM 66.0 °F 64.0 °F 93% 30.18 in 10.0 mi NE 5.8 mph - N/A   Clear
11:53 PM 64.9 °F 63.0 °F 93% 30.17 in 10.0 mi NNE 4.6 mph - N/A   Clear